FW4639 Weather Reports


time (UTC)temp
C
wind
direction
speed
KPH
gust
KPH
rain 1hr
cm
rain 24hr
cm
rain mn
cm
humidity
%
barometer
mb
20260901023056 25 148 0.0 0.0 0.00 0.00 0.00 77 1019.0
20260901021601 25 148 0.0 0.0 0.00 0.00 0.00 75 1019.1
20260901020109 26 148 0.0 0.0 0.00 0.00 0.00 74 1019.1
20260901014554 26 148 0.0 0.0 0.00 0.00 0.00 73 1019.0
20260901013054 26 148 0.0 0.0 0.00 0.00 0.00 71 1018.9
20260901011554 26 148 0.0 0.0 0.00 0.00 0.00 69 1018.7
20260901010053 26 148 0.0 0.0 0.00 0.00 0.00 68 1018.4
20260901004604 27 148 0.0 0.0 0.00 0.00 0.00 66 1018.4
20260901003053 27 148 0.0 0.0 0.00 0.00 0.00 64 1018.2
20260901001552 27 148 0.0 0.0 0.00 0.00 0.00 62 1018.1
20260901000107 28 148 0.0 0.0 0.00 0.00 0.00 62 1018.1
20260831234555 28 148 0.0 0.0 0.00 0.00 0.00 62 1018.1
20260831233050 30 148 0.0 0.0 0.00 0.00 0.00 59 1018.1
20260831231553 30 148 0.0 0.0 0.00 0.00 0.00 56 1018.1
20260831230049 30 148 0.0 0.0 0.00 0.00 0.00 53 1018.0
20260831224552 31 148 0.0 0.0 0.00 0.00 0.00 52 1017.9
20260831223056 31 148 0.0 0.0 0.00 0.00 0.00 52 1018.0
20260831221547 31 148 0.0 0.0 0.00 0.00 0.00 53 1018.0
20260831220045 31 148 0.0 0.0 0.00 0.00 0.00 53 1018.0
20260831214545 32 133 0.0 1.6 0.00 0.00 0.00 49 1018.1
20260831213043 32 131 0.0 0.0 0.00 0.00 0.00 49 1018.4
20260831211543 32 99 0.0 3.2 0.00 0.00 0.00 48 1018.5
20260831210041 32 129 0.0 0.0 0.00 0.00 0.00 54 1018.4
20260831204540 32 135 0.0 1.6 0.00 0.00 0.00 56 1018.6
20260831203040 32 136 0.0 1.6 0.00 0.00 0.00 55 1018.6
20260831201537 32 136 0.0 1.6 0.00 0.00 0.00 51 1018.7
20260831200037 32 174 0.0 0.0 0.00 0.00 0.00 51 1018.7
20260831194559 32 144 0.0 1.6 0.00 0.00 0.00 49 1018.9
20260831193033 32 112 0.0 4.8 0.00 0.00 0.00 50 1019.1
20260831191530 32 213 0.0 1.6 0.00 0.00 0.00 49 1019.1
20260831190029 32 154 0.0 0.0 0.00 0.00 0.00 50 1019.5
20260831184525 32 139 0.0 1.6 0.00 0.00 0.00 50 1019.6
20260831183023 32 139 0.0 1.6 0.00 0.00 0.00 50 1019.7
20260831181523 32 198 0.0 0.0 0.00 0.00 0.00 52 1019.8
20260831180020 33 198 0.0 1.6 0.00 0.00 0.00 50 1019.9
20260831174525 32 94 0.0 3.2 0.00 0.00 0.00 56 1020.0
20260831173016 32 126 0.0 6.4 0.00 0.00 0.00 56 1020.0
20260831171515 32 96 0.0 1.6 0.00 0.00 0.00 59 1020.1
20260831170012 33 207 0.0 1.6 0.00 0.00 0.00 62 1020.2
20260831164512 32 103 0.0 1.6 0.00 0.00 0.00 62 1020.2
20260831163007 32 153 0.0 0.0 0.00 0.00 0.00 60 1020.5
20260831161503 31 98 0.0 0.0 0.00 0.00 0.00 66 1020.5
20260831160108 30 90 0.0 3.2 0.00 0.00 0.00 67 1020.7
20260831154635 30 217 0.0 3.2 0.00 0.00 0.00 69 1020.7
20260831153054 30 195 0.0 1.6 0.00 0.00 0.00 71 1021.2
20260831151552 29 214 0.0 8.0 0.00 0.00 0.00 72 1021.2
20260831150048 28 82 0.0 1.6 0.00 0.00 0.00 75 1021.2
20260831144547 28 256 0.0 3.2 0.00 0.00 0.00 76 1021.1
20260831143105 28 215 0.0 0.0 0.00 0.00 0.00 78 1021.1
20260831141553 27 233 0.0 0.0 0.00 0.00 0.00 80 1021.0
20260831140041 27 165 0.0 0.0 0.00 0.00 0.00 87 1020.7
20260831134535 25 164 0.0 0.0 0.00 0.00 0.00 93 1020.5
20260831133032 24 222 0.0 0.0 0.00 0.00 0.00 98 1020.7
20260831131524 23 184 0.0 1.6 0.00 0.00 0.00 98 1020.7
20260831130020 22 131 0.0 0.0 0.00 0.00 0.00 98 1020.8
20260831124520 22 132 0.0 0.0 0.00 0.00 0.00 98 1020.8
20260831123019 22 132 0.0 0.0 0.00 0.00 0.00 98 1020.7
20260831121515 21 132 0.0 0.0 0.00 0.00 0.00 98 1020.6
20260831120015 21 132 0.0 0.0 0.00 0.00 0.00 98 1020.7
20260831114514 20 132 0.0 0.0 0.00 0.00 0.00 98 1020.6
20260831113018 20 132 0.0 0.0 0.00 0.00 0.00 97 1020.6
20260831111512 20 132 0.0 0.0 0.00 0.00 0.00 97 1020.6
20260831110017 20 131 0.0 0.0 0.00 0.00 0.00 97 1020.6
20260831104511 20 131 0.0 0.0 0.00 0.00 0.00 97 1020.7
20260831103009 21 131 0.0 0.0 0.00 0.00 0.00 97 1020.5
20260831101509 21 131 0.0 0.0 0.00 0.00 0.00 97 1020.3
20260831100007 21 131 0.0 0.0 0.00 0.00 0.00 97 1020.2
20260831094507 21 131 0.0 0.0 0.00 0.00 0.00 97 1020.3
20260831093009 21 131 0.0 0.0 0.00 0.00 0.00 97 1020.1
20260831091506 21 131 0.0 0.0 0.00 0.00 0.00 97 1020.1
20260831090006 21 131 0.0 0.0 0.00 0.00 0.00 97 1020.1
20260831084503 21 131 0.0 0.0 0.00 0.00 0.00 97 1020.1
20260831083007 21 131 0.0 0.0 0.00 0.00 0.00 97 1020.0
20260831081502 21 131 0.0 0.0 0.00 0.00 0.00 97 1020.1
20260831080001 21 131 0.0 0.0 0.00 0.00 0.00 97 1020.1
20260831074501 21 131 0.0 0.0 0.00 0.00 0.00 97 1020.1
20260831073104 21 131 0.0 0.0 0.00 0.00 0.00 96 1020.4
20260831071601 21 131 0.0 0.0 0.00 0.00 0.00 97 1020.4
20260831070057 21 131 0.0 0.0 0.00 0.00 0.00 97 1020.6
20260831064558 21 131 0.0 0.0 0.00 0.00 0.00 96 1020.6
20260831063056 21 131 0.0 0.0 0.00 0.00 0.00 96 1020.6
20260831061600 21 131 0.0 0.0 0.00 0.00 0.00 96 1020.7
20260831060105 21 131 0.0 0.0 0.00 0.00 0.00 96 1020.6
20260831054553 21 131 0.0 0.0 0.00 0.00 0.00 96 1020.7
20260831053052 21 131 0.0 0.0 0.00 0.00 0.00 96 1020.8
20260831051603 21 131 0.0 0.0 0.00 0.00 0.00 95 1020.7
20260831050048 22 131 0.0 0.0 0.00 0.00 0.00 95 1020.8
20260831044548 22 131 0.0 0.0 0.00 0.00 0.00 95 1020.7
20260831043045 22 131 0.0 0.0 0.00 0.00 0.00 95 1020.7
20260831041541 22 131 0.0 0.0 0.00 0.00 0.00 95 1020.8
20260831040039 22 131 0.0 0.0 0.00 0.00 0.00 94 1020.8
20260831034539 22 131 0.0 0.0 0.00 0.00 0.00 94 1020.7
20260831033038 22 131 0.0 0.0 0.00 0.00 0.00 93 1020.7
20260831031542 22 131 0.0 0.0 0.00 0.00 0.00 93 1020.8
20260831030037 22 131 0.0 0.0 0.00 0.00 0.00 93 1020.9
20260831024606 23 131 0.0 0.0 0.00 0.00 0.00 92 1021.0